Starlink 37254

operational
NORAD ID: 68554 Int'l Des: 2026-070 Owner: SPXS Country: US Constellation: starlink
LEOCIRCULAR

About Starlink 37254

Description loading...

Live Position

Loading 3D Globe...

Upcoming Passes

Altitude History

Altitude vs Time

uPlot chart will show altitude changes over time

Two-Line Element Set

1 68554C 26070M 26093.93243056 -.00269790 00000+0 -33030-3 0 936
2 68554 53.1618 259.4290 0007434 287.7208 113.7334 16.07337049 10
Epoch: Apr 3, 2026 • Age: 29 hours

Current Status

Altitude 265.5 km
Velocity 7.75 km/s
Sub-Earth Point 51.15°N, 108.84°E
Launch Date Apr 2, 2026
Age 1 days
Type internet

Technical Details

Classification Payload
Mass 575.00 kg
Dry Mass 530.00 kg
Total Mass 575.00 kg
Length 0.30 m
Diameter 4.10 m
Span 29.00 m
Shape Box + pan
Manufacturer SPXS
Bus Type Starlink V2MO
Phase Status In Orbit
Owner/State SPXS/US

Large Constellations

Loading constellations...